FW6192 Weather Reports


time (UTC)temp
C
wind
direction
speed
KPH
gust
KPH
rain 1hr
cm
rain 24hr
cm
rain mn
cm
humidity
%
barometer
mb
20260503213047 21 254 6.4 24.1 0.00 0.00 0.00 45 1003.8
20260503211534 21 310 9.7 17.7 0.00 0.00 0.00 44 1003.9
20260503210011 21 277 4.8 14.5 0.00 0.00 0.00 48 1004.0
20260503204612 21 266 8.0 14.5 0.00 0.00 0.00 48 1004.2
20260503203115 21 224 3.2 19.3 0.00 0.00 0.00 50 1004.1
20260503201550 20 218 6.4 14.5 0.00 0.00 0.00 48 1004.3
20260503200038 20 305 3.2 16.1 0.00 0.00 0.00 50 1004.4
20260503194517 20 315 6.4 16.1 0.00 0.00 0.00 50 1004.6
20260503193005 20 277 4.8 12.9 0.00 0.00 0.00 51 1004.8
20260503191604 20 215 6.4 17.7 0.00 0.00 0.00 50 1004.9
20260503190053 19 288 8.0 17.7 0.00 0.00 0.00 51 1005.0
20260503184557 19 255 8.0 16.1 0.00 0.00 0.00 50 1005.1
20260503183014 19 293 4.8 27.4 0.00 0.00 0.00 52 1005.2
20260503181504 18 267 3.2 20.9 0.00 0.00 0.00 53 1005.5
20260503180104 18 285 8.0 19.3 0.00 0.00 0.00 51 1005.7
20260503174552 18 231 8.0 19.3 0.00 0.00 0.00 52 1005.9
20260503173034 18 217 6.4 22.5 0.00 0.00 0.00 50 1005.9
20260503171519 18 247 8.0 24.1 0.00 0.00 0.00 51 1006.1
20260503140103 15 142 9.7 32.2 0.00 0.00 0.00 62 1007.8
20260503100109 10 166 4.8 11.3 0.00 0.00 0.00 59 1009.7
20260503081552 10 193 0.0 9.7 0.00 0.00 0.00 59 1010.6
20260503071613 10 227 1.6 9.7 0.00 0.00 0.00 57 1011.0
20260503054609 10 208 0.0 6.4 0.00 0.00 0.00 58 1012.0
20260503053053 10 188 1.6 8.0 0.00 0.00 0.00 57 1012.1
20260503051542 10 210 3.2 11.3 0.00 0.00 0.00 56 1012.1
20260503050030 11 205 3.2 16.1 0.00 0.00 0.00 55 1012.2
20260503044540 11 219 6.4 14.5 0.00 0.00 0.00 55 1012.3
20260503043108 11 204 4.8 17.7 0.00 0.00 0.00 54 1012.3
20260503041601 11 210 3.2 14.5 0.00 0.00 0.00 54 1012.6
20260503040045 11 180 4.8 9.7 0.00 0.00 0.00 55 1012.7
20260503034532 11 209 1.6 6.4 0.00 0.00 0.00 56 1013.0
20260503033021 11 175 0.0 3.2 0.00 0.00 0.00 57 1013.1
20260503031614 11 208 1.6 4.8 0.00 0.00 0.00 58 1013.4
20260503024547 10 146 0.0 3.2 0.00 0.00 0.00 62 1013.6
20260503023035 10 153 0.0 1.6 0.00 0.00 0.00 65 1013.6
20260503021524 10 151 0.0 1.6 0.00 0.00 0.00 62 1013.6
20260503020008 10 187 0.0 1.6 0.00 0.00 0.00 62 1013.6
20260503014609 10 217 0.0 1.6 0.00 0.00 0.00 58 1013.7
20260503013102 11 217 0.0 0.0 0.00 0.00 0.00 55 1013.6
20260503011619 12 217 0.0 0.0 0.00 0.00 0.00 50 1013.6
20260503010055 12 217 0.0 1.6 0.00 0.00 0.00 50 1013.7
20260503004546 13 257 0.0 3.2 0.00 0.00 0.00 49 1013.7
20260503003030 13 254 3.2 14.5 0.00 0.00 0.00 46 1013.7
20260503001509 14 251 4.8 11.3 0.00 0.00 0.00 45 1013.9
20260503000123 15 294 3.2 12.9 0.00 0.00 0.00 43 1013.9
20260502234605 15 286 4.8 11.3 0.00 0.00 0.00 41 1013.8
20260502233048 15 243 4.8 17.7 0.00 0.00 0.00 38 1014.0
20260502231539 15 267 4.8 17.7 0.00 0.00 0.00 39 1014.1
20260502230027 15 308 4.8 17.7 0.00 0.00 0.00 40 1014.4
20260502224519 15 294 3.2 17.7 0.00 0.00 0.00 42 1014.7
20260502223107 15 262 6.4 17.7 0.00 0.00 0.00 40 1014.7
20260502221613 15 261 8.0 20.9 0.00 0.00 0.00 40 1014.8
20260502220056 15 288 6.4 16.1 0.00 0.00 0.00 41 1014.8
20260502214537 15 294 6.4 16.1 0.00 0.00 0.00 39 1015.0